FW9692 Weather Reports


time (UTC)temp
F
wind
direction
speed
knots
gust
knots
rain 1hr
in
rain 24hr
in
rain mn
in
humidity
%
barometer
mb
20260510204545 78 36 26.1 33.9 0.00 0.00 0.00 44 1002.3
20260510203043 79 34 24.3 32.2 0.00 0.00 0.00 43 1002.1
20260510201544 79 38 30.4 38.2 0.00 0.00 0.00 41 1001.9
20260510200051 79 23 30.4 40.8 0.00 0.00 0.00 41 1002.1
20260510194547 80 32 28.7 40.8 0.00 0.00 0.00 40 1002.0
20260510193042 80 17 25.2 34.8 0.00 0.00 0.00 40 1002.0
20260510191600 79 15 24.3 33.9 0.00 0.00 0.00 40 1001.8
20260510190042 79 11 26.1 33.0 0.00 0.00 0.00 40 1001.8
20260510184532 78 23 26.9 35.6 0.00 0.00 0.00 41 1001.6
20260510183032 77 27 28.7 36.5 0.00 0.00 0.00 42 1001.8
20260510181531 76 333 29.5 39.1 0.00 0.00 0.00 44 1001.9
20260510180019 76 347 28.7 36.5 0.00 0.00 0.00 43 1001.9
20260510174518 75 344 26.1 36.5 0.00 0.00 0.00 44 1001.9
20260510173016 75 351 30.4 38.2 0.00 0.00 0.00 43 1001.6
20260510171518 75 10 26.1 38.2 0.00 0.00 0.00 44 1001.4
20260510170038 74 351 27.8 39.1 0.00 0.00 0.00 46 1001.1
20260510164538 74 344 30.4 40.8 0.00 0.00 0.00 46 1001.2
20260510163035 74 338 32.2 40.0 0.00 0.00 0.00 45 1001.1
20260510161534 74 324 31.3 41.7 0.00 0.00 0.00 43 1001.0
20260510160020 74 341 33.0 40.0 0.00 0.00 0.00 44 1000.7
20260510154518 74 326 34.8 44.3 0.00 0.00 0.00 45 1000.6
20260510153018 76 347 26.9 40.0 0.00 0.00 0.00 41 1000.4
20260510151511 78 348 26.1 33.0 0.00 0.00 0.00 25 999.8
20260510150013 79 333 24.3 33.9 0.00 0.00 0.00 22 999.6
20260510144519 80 351 21.7 26.9 0.00 0.00 0.00 18 999.2
20260510143016 78 334 18.2 22.6 0.00 0.00 0.00 22 999.0
20260510141505 79 313 12.2 15.6 0.00 0.00 0.00 23 998.6
20260510140010 78 310 10.4 15.6 0.00 0.00 0.00 24 998.1
20260510134508 78 13 8.7 17.4 0.00 0.00 0.00 25 997.7
20260510133004 76 289 13.9 27.8 0.00 0.00 0.00 26 997.4
20260510131559 74 234 14.8 18.2 0.00 0.00 0.00 29 996.5
20260510130101 72 223 14.8 18.2 0.00 0.00 0.00 31 996.4
20260510124612 71 225 13.9 17.4 0.00 0.00 0.00 32 996.2
20260510123058 72 227 16.5 20.0 0.00 0.00 0.00 31 996.0
20260510121555 72 227 16.5 19.1 0.00 0.00 0.00 30 995.9
20260510120053 72 234 16.5 19.1 0.00 0.00 0.00 29 995.9
20260510114551 72 235 15.6 18.2 0.00 0.00 0.00 29 995.8
20260510113051 71 236 13.9 17.4 0.00 0.00 0.00 30 995.7
20260510111549 71 246 13.9 17.4 0.00 0.00 0.00 28 995.7
20260510110044 71 238 14.8 17.4 0.00 0.00 0.00 28 995.7
20260510104543 72 235 14.8 19.1 0.00 0.00 0.00 27 995.7
20260510103040 71 242 14.8 17.4 0.00 0.00 0.00 28 995.5
20260510101541 71 236 13.9 17.4 0.00 0.00 0.00 27 995.5
20260510100047 70 230 13.9 16.5 0.00 0.00 0.00 27 995.3
20260510094559 71 232 14.8 16.5 0.00 0.00 0.00 24 995.2
20260510093102 72 227 13.0 16.5 0.00 0.00 0.00 23 995.1
20260510091547 73 216 13.9 16.5 0.00 0.00 0.00 21 995.0
20260510090051 73 223 13.9 16.5 0.00 0.00 0.00 22 995.1
20260510084551 73 221 13.9 17.4 0.00 0.00 0.00 20 995.1
20260510083051 72 216 13.9 17.4 0.00 0.00 0.00 22 995.2
20260510081547 70 205 13.0 16.5 0.00 0.00 0.00 24 995.3
20260510080042 71 214 13.0 16.5 0.00 0.00 0.00 24 995.3
20260510074543 72 221 13.9 16.5 0.00 0.00 0.00 24 995.4
20260510073046 72 217 14.8 17.4 0.00 0.00 0.00 24 995.5
20260510071548 73 211 13.0 15.6 0.00 0.00 0.00 23 995.5
20260510070035 74 207 13.9 16.5 0.00 0.00 0.00 22 995.7
20260510064533 75 205 13.0 15.6 0.00 0.00 0.00 22 995.6
20260510063033 75 208 13.0 17.4 0.00 0.00 0.00 22 995.9
20260510061533 75 192 12.2 14.8 0.00 0.00 0.00 22 995.9
20260510060030 75 192 12.2 15.6 0.00 0.00 0.00 22 996.0
20260510054532 77 192 13.9 19.1 0.00 0.00 0.00 21 996.1
20260510053048 77 175 14.8 19.1 0.00 0.00 0.00 20 996.0
20260510051529 78 178 17.4 21.7 0.00 0.00 0.00 19 996.0
20260510050028 79 175 17.4 21.7 0.00 0.00 0.00 19 996.2
20260510044528 79 167 18.2 22.6 0.00 0.00 0.00 18 996.2
20260510043039 80 180 18.2 22.6 0.00 0.00 0.00 17 996.2
20260510041529 82 167 17.4 23.5 0.00 0.00 0.00 15 996.2
20260510040040 82 170 17.4 20.9 0.00 0.00 0.00 14 996.2
20260510034534 83 186 15.6 19.1 0.00 0.00 0.00 14 996.1
20260510033033 84 170 17.4 19.1 0.00 0.00 0.00 13 995.9
20260510031534 84 167 16.5 19.1 0.00 0.00 0.00 13 995.8
20260510030018 85 171 14.8 20.0 0.00 0.00 0.00 13 995.7
20260510024518 85 163 14.8 17.4 0.00 0.00 0.00 13 995.6
20260510023016 86 169 11.3 16.5 0.00 0.00 0.00 12 995.3
20260510021531 87 154 12.2 14.8 0.00 0.00 0.00 11 995.3
20260510020016 87 153 11.3 14.8 0.00 0.00 0.00 12 995.1
20260510014521 89 159 11.3 14.8 0.00 0.00 0.00 10 995.0
20260510013024 89 151 12.2 15.6 0.00 0.00 0.00 10 994.9
20260510011522 90 144 14.8 17.4 0.00 0.00 0.00 10 994.7
20260510010019 91 132 10.4 16.5 0.00 0.00 0.00 9 994.7
20260510004526 93 203 6.1 13.9 0.00 0.00 0.00 8 994.8
20260510003026 93 187 7.0 13.9 0.00 0.00 0.00 8 994.8
20260510001522 93 193 4.3 17.4 0.00 0.00 0.00 8 994.8
20260510000028 93 177 9.6 13.9 0.00 0.00 0.00 8 994.9
20260509234519 93 173 8.7 18.2 0.00 0.00 0.00 8 994.9
20260509233016 93 198 8.7 15.6 0.00 0.00 0.00 8 995.1
20260509231515 93 243 7.8 13.9 0.00 0.00 0.00 8 995.2
20260509230015 93 221 7.0 12.2 0.00 0.00 0.00 8 995.3
20260509224512 93 210 6.1 13.0 0.00 0.00 0.00 8 995.5
20260509223016 93 213 9.6 20.0 0.00 0.00 0.00 8 995.6
20260509221515 92 301 2.6 13.0 0.00 0.00 0.00 8 995.8
20260509220017 92 219 7.8 13.9 0.00 0.00 0.00 8 995.9
20260509214508 92 208 12.2 22.6 0.00 0.00 0.00 9 996.1
20260509213051 92 170 5.2 13.9 0.00 0.00 0.00 9 996.3
20260509211549 92 103 5.2 15.6 0.00 0.00 0.00 9 996.6
20260509210049 93 171 7.8 9.6 0.00 0.00 0.00 9 996.9